Time,TemperatureF,DewpointF,PressureIn,WindDirection,WindDirectionDegrees,WindSpeedMPH,WindSpeedGustMPH,Humidity,HourlyPrecipIn,Conditions,Clouds,dailyrainin,SoftwareType,DateUTC
2013-03-29 00:00:00,35.8,23.7,30.29,West,270,4.0,4.0,61,0.00,,,0.00,meteohub,2013-03-29 04:00:00,
2013-03-29 00:05:00,35.8,23.7,30.29,West,270,4.0,4.0,61,0.00,,,0.00,meteohub,2013-03-29 04:05:00,
2013-03-29 00:10:00,36.3,23.7,30.29,WNW,293,4.0,4.0,60,0.00,,,0.00,meteohub,2013-03-29 04:10:00,
2013-03-29 00:15:00,36.9,23.9,30.29,South,180,0.0,4.0,59,0.00,,,0.00,meteohub,2013-03-29 04:15:00,
2013-03-29 00:20:00,37.0,23.7,30.28,South,180,1.0,4.0,58,0.00,,,0.00,meteohub,2013-03-29 04:20:00,
2013-03-29 00:25:00,36.9,23.5,30.29,SE,135,4.0,4.0,58,0.00,,,0.00,meteohub,2013-03-29 04:25:00,
2013-03-29 00:30:00,36.9,23.5,30.29,West,270,2.0,4.0,58,0.00,,,0.00,meteohub,2013-03-29 04:30:00,
2013-03-29 00:35:00,37.2,23.7,30.29,South,180,4.0,4.0,58,0.00,,,0.00,meteohub,2013-03-29 04:35:00,
2013-03-29 00:40:00,37.6,25.3,30.29,SW,225,2.0,6.0,61,0.00,,,0.00,meteohub,2013-03-29 04:40:00,
2013-03-29 00:45:00,38.5,25.3,30.29,South,180,2.0,7.0,59,0.00,,,0.00,meteohub,2013-03-29 04:45:00,
2013-03-29 00:50:00,38.5,25.3,30.29,South,180,3.0,7.0,59,0.00,,,0.00,meteohub,2013-03-29 04:50:00,
2013-03-29 00:55:00,37.8,24.8,30.29,NW,315,1.0,7.0,59,0.00,,,0.00,meteohub,2013-03-29 04:55:00,
2013-03-29 01:00:00,37.0,23.2,30.29,North,0,2.0,4.0,57,0.00,,,0.00,meteohub,2013-03-29 05:00:00,
2013-03-29 01:05:00,36.3,23.0,30.29,SE,135,4.0,4.0,58,0.00,,,0.00,meteohub,2013-03-29 05:05:00,
2013-03-29 01:10:00,36.9,23.5,30.29,SW,225,2.0,4.0,58,0.00,,,0.00,meteohub,2013-03-29 05:10:00,
2013-03-29 01:15:00,36.7,23.4,30.29,NW,315,1.0,4.0,58,0.00,,,0.00,meteohub,2013-03-29 05:15:00,
2013-03-29 01:20:00,36.3,23.0,30.29,NE,45,2.0,4.0,58,0.00,,,0.00,meteohub,2013-03-29 05:20:00,
2013-03-29 01:25:00,36.0,23.0,30.29,North,0,2.0,3.0,59,0.00,,,0.00,meteohub,2013-03-29 05:25:00,
2013-03-29 01:30:00,35.8,23.2,30.29,South,180,2.0,3.0,60,0.00,,,0.00,meteohub,2013-03-29 05:30:00,
2013-03-29 01:35:00,35.6,23.0,30.29,South,180,4.0,4.0,60,0.00,,,0.00,meteohub,2013-03-29 05:35:00,
2013-03-29 01:41:00,35.6,23.5,30.29,SW,225,2.0,4.0,61,0.00,,,0.00,meteohub,2013-03-29 05:41:00,
2013-03-29 01:46:00,35.6,23.5,30.30,West,270,2.0,4.0,61,0.00,,,0.00,meteohub,2013-03-29 05:46:00,
2013-03-29 01:51:00,34.9,23.2,30.29,North,0,4.0,4.0,62,0.00,,,0.00,meteohub,2013-03-29 05:51:00,
2013-03-29 01:56:00,34.9,23.5,30.29,South,180,3.0,4.0,63,0.00,,,0.00,meteohub,2013-03-29 05:56:00,
2013-03-29 02:01:00,34.9,23.5,30.29,SW,225,2.0,4.0,63,0.00,,,0.00,meteohub,2013-03-29 06:01:00,
2013-03-29 02:06:00,34.9,23.5,30.30,SW,225,2.0,4.0,63,0.00,,,0.00,meteohub,2013-03-29 06:06:00,
2013-03-29 02:11:00,35.1,23.7,30.30,South,180,2.0,4.0,63,0.00,,,0.00,meteohub,2013-03-29 06:11:00,
2013-03-29 02:16:00,34.7,23.4,30.30,NW,315,1.0,4.0,63,0.00,,,0.00,meteohub,2013-03-29 06:16:00,
2013-03-29 02:21:00,34.0,23.0,30.30,SW,225,2.0,4.0,64,0.00,,,0.00,meteohub,2013-03-29 06:21:00,
2013-03-29 02:26:00,33.3,22.8,30.30,South,180,2.0,3.0,65,0.00,,,0.00,meteohub,2013-03-29 06:26:00,
2013-03-29 02:31:00,32.9,22.8,30.30,West,270,1.0,3.0,66,0.00,,,0.00,meteohub,2013-03-29 06:31:00,
2013-03-29 02:36:00,32.5,22.8,30.30,West,270,2.0,2.0,67,0.00,,,0.00,meteohub,2013-03-29 06:36:00,
2013-03-29 02:41:00,32.4,22.6,30.29,South,180,2.0,2.0,67,0.00,,,0.00,meteohub,2013-03-29 06:41:00,
2013-03-29 02:47:00,32.0,22.6,30.30,South,180,2.0,2.0,68,0.00,,,0.00,meteohub,2013-03-29 06:47:00,
2013-03-29 02:52:00,32.0,23.0,30.30,South,180,2.0,2.0,69,0.00,,,0.00,meteohub,2013-03-29 06:52:00,
2013-03-29 02:57:00,32.0,23.0,30.30,SW,225,2.0,3.0,69,0.00,,,0.00,meteohub,2013-03-29 06:57:00,
2013-03-29 03:02:00,32.0,23.4,30.30,SW,225,2.0,3.0,70,0.00,,,0.00,meteohub,2013-03-29 07:02:00,
2013-03-29 03:07:00,32.0,23.4,30.30,South,180,2.0,3.0,70,0.00,,,0.00,meteohub,2013-03-29 07:07:00,
2013-03-29 03:12:00,32.0,23.7,30.30,West,270,1.0,3.0,71,0.00,,,0.00,meteohub,2013-03-29 07:12:00,
2013-03-29 03:17:00,32.0,23.7,30.30,SW,225,3.0,3.0,71,0.00,,,0.00,meteohub,2013-03-29 07:17:00,
2013-03-29 03:22:00,31.8,23.9,30.30,South,180,2.0,3.0,72,0.00,,,0.00,meteohub,2013-03-29 07:22:00,
2013-03-29 03:27:00,32.2,23.9,30.30,SW,225,2.0,3.0,71,0.00,,,0.00,meteohub,2013-03-29 07:27:00,
2013-03-29 03:32:00,32.2,23.9,30.29,SW,225,2.0,3.0,71,0.00,,,0.00,meteohub,2013-03-29 07:32:00,
2013-03-29 03:37:00,32.2,23.9,30.30,SW,225,2.0,3.0,71,0.00,,,0.00,meteohub,2013-03-29 07:37:00,
2013-03-29 03:42:00,32.2,23.9,30.30,West,270,2.0,3.0,71,0.00,,,0.00,meteohub,2013-03-29 07:42:00,
2013-03-29 03:47:00,32.2,24.3,30.30,SW,225,2.0,3.0,72,0.00,,,0.00,meteohub,2013-03-29 07:47:00,
2013-03-29 03:52:00,32.2,24.3,30.29,South,180,2.0,3.0,72,0.00,,,0.00,meteohub,2013-03-29 07:52:00,
2013-03-29 03:57:00,32.2,24.4,30.29,NW,315,1.0,3.0,73,0.00,,,0.00,meteohub,2013-03-29 07:57:00,
2013-03-29 04:02:00,32.2,24.4,30.30,South,180,2.0,2.0,73,0.00,,,0.00,meteohub,2013-03-29 08:02:00,
2013-03-29 04:07:00,32.5,24.8,30.30,SW,225,2.0,2.0,73,0.00,,,0.00,meteohub,2013-03-29 08:07:00,
2013-03-29 04:12:00,32.9,24.8,30.30,SW,225,3.0,3.0,72,0.00,,,0.00,meteohub,2013-03-29 08:12:00,
2013-03-29 04:17:00,33.1,24.6,30.30,South,180,2.0,3.0,71,0.00,,,0.00,meteohub,2013-03-29 08:17:00,
2013-03-29 04:22:00,33.1,24.4,30.30,SE,135,1.0,3.0,70,0.00,,,0.00,meteohub,2013-03-29 08:22:00,
2013-03-29 04:27:00,33.1,24.1,30.30,SW,225,3.0,4.0,69,0.00,,,0.00,meteohub,2013-03-29 08:27:00,
2013-03-29 04:32:00,32.9,24.3,30.30,North,0,2.0,4.0,70,0.00,,,0.00,meteohub,2013-03-29 08:32:00,
2013-03-29 04:37:00,32.9,24.3,30.30,SW,225,1.0,4.0,70,0.00,,,0.00,meteohub,2013-03-29 08:37:00,
2013-03-29 04:42:00,32.7,24.4,30.30,SW,225,1.0,3.0,71,0.00,,,0.00,meteohub,2013-03-29 08:42:00,
2013-03-29 04:47:00,32.4,24.1,30.30,South,180,1.0,2.0,71,0.00,,,0.00,meteohub,2013-03-29 08:47:00,
2013-03-29 04:53:00,32.0,24.1,30.30,SW,225,2.0,2.0,72,0.00,,,0.00,meteohub,2013-03-29 08:53:00,
2013-03-29 04:58:00,31.6,24.3,30.30,SW,225,1.0,2.0,74,0.00,,,0.00,meteohub,2013-03-29 08:58:00,
2013-03-29 05:03:00,31.3,23.9,30.30,West,270,0.0,2.0,74,0.00,,,0.00,meteohub,2013-03-29 09:03:00,
2013-03-29 05:08:00,30.9,23.5,30.29,SW,225,2.0,2.0,74,0.00,,,0.00,meteohub,2013-03-29 09:08:00,
2013-03-29 05:13:00,30.7,23.7,30.29,SW,225,2.0,2.0,75,0.00,,,0.00,meteohub,2013-03-29 09:13:00,
2013-03-29 05:18:00,30.6,23.5,30.30,SW,225,2.0,2.0,75,0.00,,,0.00,meteohub,2013-03-29 09:18:00,
2013-03-29 05:23:00,30.4,23.4,30.30,SW,225,2.0,2.0,75,0.00,,,0.00,meteohub,2013-03-29 09:23:00,
2013-03-29 05:28:00,30.4,23.4,30.30,SW,225,2.0,2.0,75,0.00,,,0.00,meteohub,2013-03-29 09:28:00,
2013-03-29 05:33:00,30.2,23.2,30.30,South,180,2.0,2.0,75,0.00,,,0.00,meteohub,2013-03-29 09:33:00,
2013-03-29 05:38:00,30.2,23.5,30.30,NW,315,1.0,3.0,76,0.00,,,0.00,meteohub,2013-03-29 09:38:00,
2013-03-29 05:43:00,30.2,23.5,30.30,South,180,2.0,3.0,76,0.00,,,0.00,meteohub,2013-03-29 09:43:00,
2013-03-29 05:48:00,30.4,24.1,30.30,SW,225,2.0,3.0,77,0.00,,,0.00,meteohub,2013-03-29 09:48:00,
2013-03-29 05:53:00,30.6,24.3,30.30,South,180,2.0,2.0,77,0.00,,,0.00,meteohub,2013-03-29 09:53:00,
2013-03-29 05:58:00,30.9,24.6,30.30,South,180,2.0,3.0,77,0.00,,,0.00,meteohub,2013-03-29 09:58:00,
2013-03-29 06:03:00,30.9,24.6,30.30,SE,135,1.0,3.0,77,0.00,,,0.00,meteohub,2013-03-29 10:03:00,
2013-03-29 06:08:00,31.3,25.0,30.30,North,0,0.0,3.0,77,0.00,,,0.00,meteohub,2013-03-29 10:08:00,
2013-03-29 06:13:00,31.3,25.0,30.30,South,180,1.0,2.0,77,0.00,,,0.00,meteohub,2013-03-29 10:13:00,
2013-03-29 06:18:00,31.3,25.0,30.30,South,180,2.0,2.0,77,0.00,,,0.00,meteohub,2013-03-29 10:18:00,
2013-03-29 06:23:00,31.3,25.0,30.30,South,180,1.0,2.0,77,0.00,,,0.00,meteohub,2013-03-29 10:23:00,
2013-03-29 06:28:00,31.3,25.0,30.30,South,180,2.0,2.0,77,0.00,,,0.00,meteohub,2013-03-29 10:28:00,
2013-03-29 06:33:00,31.3,25.2,30.30,SW,225,1.0,2.0,78,0.00,,,0.00,meteohub,2013-03-29 10:33:00,
2013-03-29 06:38:00,31.3,25.2,30.30,West,270,1.0,2.0,78,0.00,,,0.00,meteohub,2013-03-29 10:38:00,
2013-03-29 06:43:00,31.3,25.2,30.31,NE,45,0.0,2.0,78,0.00,,,0.00,meteohub,2013-03-29 10:43:00,
2013-03-29 06:48:00,31.3,25.2,30.31,South,180,1.0,2.0,78,0.00,,,0.00,meteohub,2013-03-29 10:48:00,
2013-03-29 06:53:00,31.3,25.2,30.31,North,0,2.0,2.0,78,0.00,,,0.00,meteohub,2013-03-29 10:53:00,
2013-03-29 06:58:00,31.3,25.2,30.31,West,270,1.0,2.0,78,0.00,,,0.00,meteohub,2013-03-29 10:58:00,
2013-03-29 07:03:00,31.3,25.2,30.31,SE,135,1.0,2.0,78,0.00,,,0.00,meteohub,2013-03-29 11:03:00,
2013-03-29 07:08:00,31.3,25.2,30.32,NE,45,2.0,2.0,78,0.00,,,0.00,meteohub,2013-03-29 11:08:00,
2013-03-29 07:13:00,31.1,25.0,30.32,NE,45,1.0,2.0,78,0.00,,,0.00,meteohub,2013-03-29 11:13:00,
2013-03-29 07:18:00,30.9,24.6,30.32,NE,45,2.0,2.0,77,0.00,,,0.00,meteohub,2013-03-29 11:18:00,
2013-03-29 07:23:00,30.7,24.4,30.32,South,180,0.0,2.0,77,0.00,,,0.00,meteohub,2013-03-29 11:23:00,
2013-03-29 07:28:00,30.4,24.3,30.32,North,0,2.0,2.0,78,0.00,,,0.00,meteohub,2013-03-29 11:28:00,
2013-03-29 07:33:00,30.4,24.3,30.32,NE,45,2.0,2.0,78,0.00,,,0.00,meteohub,2013-03-29 11:33:00,
2013-03-29 07:38:00,30.6,24.4,30.32,NE,45,2.0,2.0,78,0.00,,,0.00,meteohub,2013-03-29 11:38:00,
2013-03-29 07:43:00,30.7,24.6,30.32,NW,315,2.0,2.0,78,0.00,,,0.00,meteohub,2013-03-29 11:43:00,
2013-03-29 07:48:00,30.7,24.6,30.32,NE,45,1.0,2.0,78,0.00,,,0.00,meteohub,2013-03-29 11:48:00,
2013-03-29 07:53:00,30.7,24.6,30.32,NE,45,2.0,2.0,78,0.00,,,0.00,meteohub,2013-03-29 11:53:00,
2013-03-29 07:58:00,30.9,24.8,30.32,SE,135,1.0,2.0,78,0.00,,,0.00,meteohub,2013-03-29 11:58:00,
2013-03-29 08:03:00,31.1,25.0,30.32,NE,45,2.0,2.0,78,0.00,,,0.00,meteohub,2013-03-29 12:03:00,
2013-03-29 08:08:00,31.8,25.7,30.32,NE,45,1.0,2.0,78,0.00,,,0.00,meteohub,2013-03-29 12:08:00,
2013-03-29 08:13:00,32.5,26.1,30.33,North,0,2.0,2.0,77,0.00,,,0.00,meteohub,2013-03-29 12:13:00,
2013-03-29 08:18:00,34.0,27.1,30.32,North,0,2.0,2.0,76,0.00,,,0.00,meteohub,2013-03-29 12:18:00,
2013-03-29 08:23:00,35.1,27.7,30.32,North,0,2.0,2.0,74,0.00,,,0.00,meteohub,2013-03-29 12:23:00,
2013-03-29 08:28:00,36.0,27.9,30.32,East,90,2.0,2.0,72,0.00,,,0.00,meteohub,2013-03-29 12:28:00,
2013-03-29 08:33:00,36.9,28.4,30.32,North,0,2.0,2.0,71,0.00,,,0.00,meteohub,2013-03-29 12:33:00,
2013-03-29 08:38:00,38.3,30.0,30.32,SW,225,4.0,4.0,72,0.00,,,0.00,meteohub,2013-03-29 12:38:00,
2013-03-29 08:43:00,39.4,29.3,30.32,North,0,4.0,7.0,67,0.00,,,0.00,meteohub,2013-03-29 12:43:00,
2013-03-29 08:49:00,39.9,29.5,30.33,West,270,4.0,7.0,66,0.00,,,0.00,meteohub,2013-03-29 12:49:00,
2013-03-29 08:54:00,41.0,29.3,30.32,South,180,7.0,7.0,63,0.00,,,0.00,meteohub,2013-03-29 12:54:00,
2013-03-29 08:59:00,41.7,30.0,30.32,West,270,4.0,7.0,63,0.00,,,0.00,meteohub,2013-03-29 12:59:00,
2013-03-29 09:04:00,43.0,29.7,30.32,East,90,5.0,8.0,59,0.00,,,0.00,meteohub,2013-03-29 13:04:00,
2013-03-29 09:09:00,44.6,31.6,30.32,South,180,3.0,8.0,60,0.00,,,0.00,meteohub,2013-03-29 13:09:00,
2013-03-29 09:14:00,46.2,32.2,30.33,North,0,2.0,8.0,58,0.00,,,0.00,meteohub,2013-03-29 13:14:00,
2013-03-29 09:19:00,46.9,32.9,30.32,NW,315,2.0,8.0,58,0.00,,,0.00,meteohub,2013-03-29 13:19:00,
2013-03-29 09:24:00,46.8,31.5,30.32,WSW,248,4.0,4.0,55,0.00,,,0.00,meteohub,2013-03-29 13:24:00,
2013-03-29 09:29:00,46.2,29.5,30.33,SE,135,5.0,5.0,52,0.00,,,0.00,meteohub,2013-03-29 13:29:00,
2013-03-29 09:34:00,46.2,29.5,30.32,South,180,4.0,5.0,52,0.00,,,0.00,meteohub,2013-03-29 13:34:00,
2013-03-29 09:39:00,46.8,30.6,30.32,SSW,203,5.0,5.0,53,0.00,,,0.00,meteohub,2013-03-29 13:39:00,
2013-03-29 09:44:00,47.5,30.7,30.32,NE,45,2.0,6.0,52,0.00,,,0.00,meteohub,2013-03-29 13:44:00,
2013-03-29 09:49:00,48.6,30.7,30.32,SE,135,3.0,6.0,50,0.00,,,0.00,meteohub,2013-03-29 13:49:00,
2013-03-29 09:54:00,49.1,31.3,30.32,NE,45,3.0,6.0,50,0.00,,,0.00,meteohub,2013-03-29 13:54:00,
2013-03-29 09:59:00,50.2,31.8,30.31,NE,45,3.0,5.0,49,0.00,,,0.00,meteohub,2013-03-29 13:59:00,
2013-03-29 10:04:00,50.7,31.3,30.32,SW,225,2.0,5.0,47,0.00,,,0.00,meteohub,2013-03-29 14:04:00,
2013-03-29 10:09:00,51.1,31.1,30.31,NNW,338,3.0,5.0,46,0.00,,,0.00,meteohub,2013-03-29 14:09:00,
2013-03-29 10:14:00,51.6,31.5,30.32,East,90,3.0,5.0,46,0.00,,,0.00,meteohub,2013-03-29 14:14:00,
2013-03-29 10:19:00,52.0,30.7,30.32,South,180,5.0,5.0,44,0.00,,,0.00,meteohub,2013-03-29 14:19:00,
2013-03-29 10:24:00,51.8,29.5,30.31,North,0,4.0,5.0,42,0.00,,,0.00,meteohub,2013-03-29 14:24:00,
2013-03-29 10:29:00,52.3,31.1,30.32,South,180,2.0,6.0,44,0.00,,,0.00,meteohub,2013-03-29 14:29:00,
2013-03-29 10:34:00,52.3,29.8,30.31,North,0,4.0,6.0,42,0.00,,,0.00,meteohub,2013-03-29 14:34:00,
2013-03-29 10:39:00,52.5,30.0,30.31,East,90,3.0,6.0,42,0.00,,,0.00,meteohub,2013-03-29 14:39:00,
2013-03-29 10:44:00,52.9,29.3,30.32,NE,45,4.0,7.0,40,0.00,,,0.00,meteohub,2013-03-29 14:44:00,
2013-03-29 10:49:00,53.6,31.1,30.32,South,180,5.0,7.0,42,0.00,,,0.00,meteohub,2013-03-29 14:49:00,
2013-03-29 10:54:00,53.8,29.5,30.31,NW,315,3.0,8.0,39,0.00,,,0.00,meteohub,2013-03-29 14:54:00,
2013-03-29 10:59:00,54.0,30.7,30.31,NE,45,5.0,8.0,41,0.00,,,0.00,meteohub,2013-03-29 14:59:00,
2013-03-29 11:04:00,54.0,29.5,30.31,South,180,9.0,9.0,39,0.00,,,0.00,meteohub,2013-03-29 15:04:00,
2013-03-29 11:09:00,53.6,29.3,30.31,East,90,3.0,9.0,39,0.00,,,0.00,meteohub,2013-03-29 15:09:00,
2013-03-29 11:14:00,54.1,29.7,30.31,NE,45,4.0,9.0,39,0.00,,,0.00,meteohub,2013-03-29 15:14:00,
2013-03-29 11:19:00,54.5,28.0,30.31,NE,45,5.0,11.0,36,0.00,,,0.00,meteohub,2013-03-29 15:19:00,
2013-03-29 11:24:00,55.0,27.9,30.31,SSE,158,8.0,11.0,35,0.00,,,0.00,meteohub,2013-03-29 15:24:00,
2013-03-29 11:29:00,54.9,27.7,30.31,SE,135,3.0,11.0,35,0.00,,,0.00,meteohub,2013-03-29 15:29:00,
2013-03-29 11:34:00,54.9,25.5,30.31,North,0,3.0,13.0,32,0.00,,,0.00,meteohub,2013-03-29 15:34:00,
2013-03-29 11:39:00,55.6,29.1,30.31,South,180,5.0,13.0,36,0.00,,,0.00,meteohub,2013-03-29 15:39:00,
2013-03-29 11:44:00,55.8,29.1,30.31,South,180,5.0,13.0,36,0.00,,,0.00,meteohub,2013-03-29 15:44:00,
2013-03-29 11:49:00,55.8,26.4,30.31,NE,45,4.0,12.0,32,0.00,,,0.00,meteohub,2013-03-29 15:49:00,
2013-03-29 11:54:00,55.8,27.1,30.31,South,180,4.0,8.0,33,0.00,,,0.00,meteohub,2013-03-29 15:54:00,
2013-03-29 11:59:00,56.8,28.0,30.30,NE,45,4.0,8.0,33,0.00,,,0.00,meteohub,2013-03-29 15:59:00,
2013-03-29 12:04:00,56.5,27.7,30.31,NW,315,8.0,8.0,33,0.00,,,0.00,meteohub,2013-03-29 16:04:00,
2013-03-29 12:09:00,56.3,25.3,30.30,North,0,6.0,8.0,30,0.00,,,0.00,meteohub,2013-03-29 16:09:00,
2013-03-29 12:14:00,56.3,27.5,30.30,South,180,4.0,11.0,33,0.00,,,0.00,meteohub,2013-03-29 16:14:00,
2013-03-29 12:19:00,57.0,28.2,30.30,NW,315,3.0,11.0,33,0.00,,,0.00,meteohub,2013-03-29 16:19:00,
2013-03-29 12:24:00,56.7,27.9,30.29,SSE,158,7.0,8.0,33,0.00,,,0.00,meteohub,2013-03-29 16:24:00,
2013-03-29 12:29:00,57.2,28.4,30.29,SE,135,4.0,10.0,33,0.00,,,0.00,meteohub,2013-03-29 16:29:00,
2013-03-29 12:34:00,57.7,26.4,30.29,SW,225,6.0,10.0,30,0.00,,,0.00,meteohub,2013-03-29 16:34:00,
2013-03-29 12:39:00,57.7,26.4,30.28,North,0,3.0,10.0,30,0.00,,,0.00,meteohub,2013-03-29 16:39:00,
2013-03-29 12:44:00,57.7,24.8,30.28,NE,45,5.0,10.0,28,0.00,,,0.00,meteohub,2013-03-29 16:44:00,
2013-03-29 12:49:00,57.4,24.6,30.28,SE,135,3.0,10.0,28,0.00,,,0.00,meteohub,2013-03-29 16:49:00,
2013-03-29 12:54:00,57.7,24.8,30.27,North,0,8.0,9.0,28,0.00,,,0.00,meteohub,2013-03-29 16:54:00,
2013-03-29 12:59:00,57.7,24.8,30.27,SSW,203,7.0,9.0,28,0.00,,,0.00,meteohub,2013-03-29 16:59:00,
2013-03-29 13:04:00,57.9,24.1,30.27,South,180,8.0,8.0,27,0.00,,,0.00,meteohub,2013-03-29 17:04:00,
2013-03-29 13:09:00,57.7,23.0,30.27,South,180,11.0,11.0,26,0.00,,,0.00,meteohub,2013-03-29 17:09:00,
2013-03-29 13:14:00,57.7,21.2,30.27,NE,45,13.0,13.0,24,0.00,,,0.00,meteohub,2013-03-29 17:14:00,
2013-03-29 13:19:00,57.4,20.8,30.27,South,180,6.0,11.0,24,0.00,,,0.00,meteohub,2013-03-29 17:19:00,
2013-03-29 13:24:00,57.7,22.1,30.26,NNW,338,5.0,13.0,25,0.00,,,0.00,meteohub,2013-03-29 17:24:00,
2013-03-29 13:30:00,58.8,23.0,30.26,South,180,8.0,13.0,25,0.00,,,0.00,meteohub,2013-03-29 17:30:00,
2013-03-29 13:34:00,58.8,22.1,30.26,North,0,3.0,10.0,24,0.00,,,0.00,meteohub,2013-03-29 17:34:00,
2013-03-29 13:39:00,59.0,21.2,30.25,WNW,293,8.0,10.0,23,0.00,,,0.00,meteohub,2013-03-29 17:39:00,
2013-03-29 13:45:00,59.0,21.2,30.25,South,180,7.0,10.0,23,0.00,,,0.00,meteohub,2013-03-29 17:45:00,
2013-03-29 13:50:00,60.1,23.2,30.25,NNW,338,8.0,15.0,24,0.00,,,0.00,meteohub,2013-03-29 17:50:00,
2013-03-29 13:55:00,59.5,21.7,30.25,North,0,5.0,15.0,23,0.00,,,0.00,meteohub,2013-03-29 17:55:00,
2013-03-29 14:00:00,58.8,22.1,30.24,South,180,12.0,15.0,24,0.00,,,0.00,meteohub,2013-03-29 18:00:00,
2013-03-29 14:05:00,58.1,21.6,30.24,NW,315,4.0,13.0,24,0.00,,,0.00,meteohub,2013-03-29 18:05:00,
2013-03-29 14:10:00,58.3,21.6,30.24,SW,225,4.0,15.0,24,0.00,,,0.00,meteohub,2013-03-29 18:10:00,
2013-03-29 14:15:00,59.5,22.6,30.24,South,180,12.0,15.0,24,0.00,,,0.00,meteohub,2013-03-29 18:15:00,
2013-03-29 14:20:00,59.7,21.9,30.23,South,180,8.0,15.0,23,0.00,,,0.00,meteohub,2013-03-29 18:20:00,
2013-03-29 14:25:00,59.2,21.4,30.24,South,180,9.0,12.0,23,0.00,,,0.00,meteohub,2013-03-29 18:25:00,
2013-03-29 14:30:00,59.4,21.6,30.23,North,0,8.0,13.0,23,0.00,,,0.00,meteohub,2013-03-29 18:30:00,
2013-03-29 14:35:00,59.4,21.6,30.23,NNW,338,4.0,13.0,23,0.00,,,0.00,meteohub,2013-03-29 18:35:00,
2013-03-29 14:40:00,59.9,21.9,30.22,NW,315,4.0,13.0,23,0.00,,,0.00,meteohub,2013-03-29 18:40:00,
2013-03-29 14:45:00,60.1,22.1,30.22,SW,225,14.0,14.0,23,0.00,,,0.00,meteohub,2013-03-29 18:45:00,
2013-03-29 14:50:00,60.1,22.1,30.22,SW,225,14.0,14.0,23,0.00,,,0.00,meteohub,2013-03-29 18:50:00,
2013-03-29 14:55:00,58.3,21.6,30.22,NE,45,15.0,15.0,24,0.00,,,0.00,meteohub,2013-03-29 18:55:00,
2013-03-29 15:00:00,59.0,21.2,30.22,WNW,293,7.0,14.0,23,0.00,,,0.00,meteohub,2013-03-29 19:00:00,
2013-03-29 15:05:00,59.9,23.9,30.22,NW,315,5.0,15.0,25,0.00,,,0.00,meteohub,2013-03-29 19:05:00,
2013-03-29 15:10:00,60.6,22.6,30.21,SW,225,4.0,15.0,23,0.00,,,0.00,meteohub,2013-03-29 19:10:00,
2013-03-29 15:15:00,59.9,21.0,30.21,North,0,4.0,11.0,22,0.00,,,0.00,meteohub,2013-03-29 19:15:00,
2013-03-29 15:20:00,59.5,21.7,30.22,South,180,11.0,20.0,23,0.00,,,0.00,meteohub,2013-03-29 19:20:00,
2013-03-29 15:25:00,59.5,21.7,30.21,NW,315,6.0,20.0,23,0.00,,,0.00,meteohub,2013-03-29 19:25:00,
2013-03-29 15:30:00,59.9,21.9,30.20,North,0,6.0,20.0,23,0.00,,,0.00,meteohub,2013-03-29 19:30:00,
2013-03-29 15:35:00,59.5,21.7,30.20,East,90,8.0,12.0,23,0.00,,,0.00,meteohub,2013-03-29 19:35:00,
2013-03-29 15:40:00,59.2,20.3,30.20,NW,315,4.0,11.0,22,0.00,,,0.00,meteohub,2013-03-29 19:40:00,
2013-03-29 15:45:00,59.5,21.7,30.20,North,0,8.0,8.0,23,0.00,,,0.00,meteohub,2013-03-29 19:45:00,
2013-03-29 15:50:00,60.3,23.4,30.20,West,270,6.0,8.0,24,0.00,,,0.00,meteohub,2013-03-29 19:50:00,
2013-03-29 15:55:00,60.8,22.8,30.19,SE,135,4.0,8.0,23,0.00,,,0.00,meteohub,2013-03-29 19:55:00,
2013-03-29 16:00:00,60.6,22.6,30.20,North,0,8.0,10.0,23,0.00,,,0.00,meteohub,2013-03-29 20:00:00,
2013-03-29 16:05:00,59.9,21.9,30.19,South,180,12.0,12.0,23,0.00,,,0.00,meteohub,2013-03-29 20:05:00,
2013-03-29 16:10:00,58.8,22.1,30.19,West,270,5.0,12.0,24,0.00,,,0.00,meteohub,2013-03-29 20:10:00,
2013-03-29 16:15:00,57.7,21.2,30.19,North,0,4.0,16.0,24,0.00,,,0.00,meteohub,2013-03-29 20:15:00,
2013-03-29 16:20:00,57.7,21.2,30.19,South,180,8.0,16.0,24,0.00,,,0.00,meteohub,2013-03-29 20:20:00,
2013-03-29 16:25:00,57.6,21.0,30.19,South,180,3.0,12.0,24,0.00,,,0.00,meteohub,2013-03-29 20:25:00,
2013-03-29 16:30:00,57.6,21.0,30.19,South,180,2.0,13.0,24,0.00,,,0.00,meteohub,2013-03-29 20:30:00,
2013-03-29 16:35:00,58.1,21.6,30.19,NE,45,4.0,13.0,24,0.00,,,0.00,meteohub,2013-03-29 20:35:00,
2013-03-29 16:40:00,57.9,21.4,30.19,NE,45,5.0,13.0,24,0.00,,,0.00,meteohub,2013-03-29 20:40:00,
2013-03-29 16:45:00,57.2,20.7,30.19,West,270,2.0,8.0,24,0.00,,,0.00,meteohub,2013-03-29 20:45:00,
2013-03-29 16:50:00,57.4,21.9,30.19,SW,225,8.0,10.0,25,0.00,,,0.00,meteohub,2013-03-29 20:50:00,
2013-03-29 16:56:00,57.7,22.1,30.19,North,0,4.0,12.0,25,0.00,,,0.00,meteohub,2013-03-29 20:56:00,
2013-03-29 17:01:00,58.3,21.6,30.19,North,0,6.0,12.0,24,0.00,,,0.00,meteohub,2013-03-29 21:01:00,
2013-03-29 17:06:00,57.9,21.4,30.18,SE,135,4.0,12.0,24,0.00,,,0.00,meteohub,2013-03-29 21:06:00,
2013-03-29 17:11:00,58.1,21.6,30.18,SE,135,8.0,8.0,24,0.00,,,0.00,meteohub,2013-03-29 21:11:00,
2013-03-29 17:16:00,58.3,22.6,30.19,East,90,4.0,8.0,25,0.00,,,0.00,meteohub,2013-03-29 21:16:00,
2013-03-29 17:21:00,57.7,22.1,30.19,WSW,248,4.0,9.0,25,0.00,,,0.00,meteohub,2013-03-29 21:21:00,
2013-03-29 17:26:00,58.1,21.6,30.19,North,0,10.0,10.0,24,0.00,,,0.00,meteohub,2013-03-29 21:26:00,
2013-03-29 17:31:00,57.9,21.4,30.18,North,0,6.0,10.0,24,0.00,,,0.00,meteohub,2013-03-29 21:31:00,
2013-03-29 17:36:00,57.2,20.7,30.19,East,90,4.0,15.0,24,0.00,,,0.00,meteohub,2013-03-29 21:36:00,
2013-03-29 17:41:00,56.5,21.9,30.19,North,0,12.0,15.0,26,0.00,,,0.00,meteohub,2013-03-29 21:41:00,
2013-03-29 17:46:00,56.1,21.7,30.19,South,180,4.0,15.0,26,0.00,,,0.00,meteohub,2013-03-29 21:46:00,
2013-03-29 17:51:00,56.3,21.9,30.19,West,270,6.0,12.0,26,0.00,,,0.00,meteohub,2013-03-29 21:51:00,
2013-03-29 17:56:00,57.0,22.5,30.19,North,0,5.0,12.0,26,0.00,,,0.00,meteohub,2013-03-29 21:56:00,
2013-03-29 18:01:00,56.7,22.1,30.19,North,0,5.0,12.0,26,0.00,,,0.00,meteohub,2013-03-29 22:01:00,
2013-03-29 18:06:00,56.5,21.9,30.18,North,0,7.0,11.0,26,0.00,,,0.00,meteohub,2013-03-29 22:06:00,
2013-03-29 18:11:00,56.1,21.7,30.19,NE,45,4.0,11.0,26,0.00,,,0.00,meteohub,2013-03-29 22:11:00,
2013-03-29 18:17:00,55.9,21.6,30.19,NW,315,7.0,11.0,26,0.00,,,0.00,meteohub,2013-03-29 22:17:00,
2013-03-29 18:22:00,55.6,21.2,30.19,SE,135,4.0,11.0,26,0.00,,,0.00,meteohub,2013-03-29 22:22:00,
2013-03-29 18:27:00,55.2,19.0,30.19,ENE,68,8.0,8.0,24,0.00,,,0.00,meteohub,2013-03-29 22:27:00,
2013-03-29 18:32:00,55.0,18.9,30.19,SE,135,8.0,11.0,24,0.00,,,0.00,meteohub,2013-03-29 22:32:00,
2013-03-29 18:37:00,54.5,18.5,30.19,NE,45,6.0,11.0,24,0.00,,,0.00,meteohub,2013-03-29 22:37:00,
2013-03-29 18:42:00,54.3,18.3,30.19,NE,45,5.0,11.0,24,0.00,,,0.00,meteohub,2013-03-29 22:42:00,
2013-03-29 18:47:00,54.1,19.0,30.19,North,0,10.0,12.0,25,0.00,,,0.00,meteohub,2013-03-29 22:47:00,
2013-03-29 18:52:00,54.0,19.8,30.20,NW,315,12.0,12.0,26,0.00,,,0.00,meteohub,2013-03-29 22:52:00,
2013-03-29 18:57:00,54.0,19.8,30.20,North,0,11.0,12.0,26,0.00,,,0.00,meteohub,2013-03-29 22:57:00,
2013-03-29 19:02:00,53.8,19.8,30.20,NW,315,4.0,12.0,26,0.00,,,0.00,meteohub,2013-03-29 23:02:00,
2013-03-29 19:07:00,53.6,19.6,30.20,North,0,4.0,12.0,26,0.00,,,0.00,meteohub,2013-03-29 23:07:00,
2013-03-29 19:12:00,53.6,19.6,30.20,NE,45,5.0,11.0,26,0.00,,,0.00,meteohub,2013-03-29 23:12:00,
2013-03-29 19:17:00,53.4,20.3,30.20,NW,315,4.0,11.0,27,0.00,,,0.00,meteohub,2013-03-29 23:17:00,
2013-03-29 19:22:00,53.2,20.1,30.20,North,0,4.0,11.0,27,0.00,,,0.00,meteohub,2013-03-29 23:22:00,
2013-03-29 19:27:00,53.2,20.1,30.20,NE,45,8.0,11.0,27,0.00,,,0.00,meteohub,2013-03-29 23:27:00,
2013-03-29 19:32:00,53.1,20.8,30.20,South,180,5.0,11.0,28,0.00,,,0.00,meteohub,2013-03-29 23:32:00,
2013-03-29 19:37:00,52.9,20.7,30.20,North,0,2.0,11.0,28,0.00,,,0.00,meteohub,2013-03-29 23:37:00,
2013-03-29 19:42:00,52.7,20.5,30.20,North,0,5.0,8.0,28,0.00,,,0.00,meteohub,2013-03-29 23:42:00,
2013-03-29 19:47:00,52.5,20.3,30.21,North,0,8.0,8.0,28,0.00,,,0.00,meteohub,2013-03-29 23:47:00,
2013-03-29 19:52:00,52.5,20.3,30.20,SE,135,2.0,9.0,28,0.00,,,0.00,meteohub,2013-03-29 23:52:00,
2013-03-29 19:57:00,52.0,21.6,30.21,SSW,203,2.0,9.0,30,0.00,,,0.00,meteohub,2013-03-29 23:57:00,
2013-03-29 20:02:00,51.4,23.4,30.21,SW,225,2.0,9.0,33,0.00,,,0.00,meteohub,2013-03-30 00:02:00,
2013-03-29 20:07:00,50.5,24.6,30.21,SW,225,2.0,6.0,36,0.00,,,0.00,meteohub,2013-03-30 00:07:00,
2013-03-29 20:13:00,48.9,25.7,30.21,SE,135,4.0,6.0,40,0.00,,,0.00,meteohub,2013-03-30 00:13:00,
2013-03-29 20:18:00,48.7,24.8,30.21,East,90,2.0,4.0,39,0.00,,,0.00,meteohub,2013-03-30 00:18:00,
2013-03-29 20:23:00,48.0,25.5,30.21,SW,225,2.0,4.0,41,0.00,,,0.00,meteohub,2013-03-30 00:23:00,
2013-03-29 20:28:00,46.9,26.2,30.21,SSW,203,2.0,4.0,44,0.00,,,0.00,meteohub,2013-03-30 00:28:00,
2013-03-29 20:33:00,46.0,25.3,30.21,SW,225,2.0,3.0,44,0.00,,,0.00,meteohub,2013-03-30 00:33:00,
2013-03-29 20:38:00,46.0,25.3,30.21,NE,45,8.0,8.0,44,0.00,,,0.00,meteohub,2013-03-30 00:38:00,
2013-03-29 20:43:00,47.5,27.1,30.21,South,180,3.0,12.0,45,0.00,,,0.00,meteohub,2013-03-30 00:43:00,
2013-03-29 20:48:00,46.9,27.3,30.22,SW,225,3.0,12.0,46,0.00,,,0.00,meteohub,2013-03-30 00:48:00,
2013-03-29 20:53:00,46.0,25.9,30.22,West,270,2.0,12.0,45,0.00,,,0.00,meteohub,2013-03-30 00:53:00,
2013-03-29 20:58:00,45.7,25.5,30.22,West,270,2.0,4.0,45,0.00,,,0.00,meteohub,2013-03-30 00:58:00,
2013-03-29 21:03:00,45.7,25.5,30.22,SE,135,1.0,4.0,45,0.00,,,0.00,meteohub,2013-03-30 01:03:00,
2013-03-29 21:08:00,45.5,25.3,30.22,SW,225,3.0,4.0,45,0.00,,,0.00,meteohub,2013-03-30 01:08:00,
2013-03-29 21:13:00,44.8,25.7,30.22,West,270,2.0,3.0,47,0.00,,,0.00,meteohub,2013-03-30 01:13:00,
2013-03-29 21:18:00,44.6,25.7,30.23,SW,225,3.0,4.0,47,0.00,,,0.00,meteohub,2013-03-30 01:18:00,
2013-03-29 21:23:00,43.5,27.1,30.23,South,180,2.0,4.0,52,0.00,,,0.00,meteohub,2013-03-30 01:23:00,
2013-03-29 21:28:00,43.3,27.0,30.23,South,180,2.0,3.0,52,0.00,,,0.00,meteohub,2013-03-30 01:28:00,
2013-03-29 21:33:00,43.2,27.1,30.23,SW,225,2.0,3.0,53,0.00,,,0.00,meteohub,2013-03-30 01:33:00,
2013-03-29 21:38:00,43.0,27.0,30.23,SSW,203,2.0,3.0,53,0.00,,,0.00,meteohub,2013-03-30 01:38:00,
2013-03-29 21:43:00,43.0,27.0,30.22,SSW,203,3.0,3.0,53,0.00,,,0.00,meteohub,2013-03-30 01:43:00,
2013-03-29 21:48:00,43.2,27.1,30.23,South,180,2.0,3.0,53,0.00,,,0.00,meteohub,2013-03-30 01:48:00,
2013-03-29 21:53:00,43.5,27.1,30.23,South,180,2.0,3.0,52,0.00,,,0.00,meteohub,2013-03-30 01:53:00,
2013-03-29 21:58:00,43.9,26.4,30.23,NE,45,2.0,3.0,50,0.00,,,0.00,meteohub,2013-03-30 01:58:00,
2013-03-29 22:03:00,43.9,26.4,30.23,NE,45,2.0,3.0,50,0.00,,,0.00,meteohub,2013-03-30 02:03:00,
2013-03-29 22:08:00,45.0,25.9,30.23,SW,225,1.0,3.0,47,0.00,,,0.00,meteohub,2013-03-30 02:08:00,
2013-03-29 22:13:00,45.0,25.9,30.23,South,180,2.0,3.0,47,0.00,,,0.00,meteohub,2013-03-30 02:13:00,
2013-03-29 22:18:00,44.6,26.1,30.23,SW,225,2.0,2.0,48,0.00,,,0.00,meteohub,2013-03-30 02:18:00,
2013-03-29 22:23:00,44.1,26.6,30.24,South,180,1.0,2.0,50,0.00,,,0.00,meteohub,2013-03-30 02:23:00,
2013-03-29 22:28:00,43.9,25.9,30.23,SW,225,2.0,2.0,49,0.00,,,0.00,meteohub,2013-03-30 02:28:00,
2013-03-29 22:33:00,44.1,26.1,30.23,North,0,2.0,4.0,49,0.00,,,0.00,meteohub,2013-03-30 02:33:00,
2013-03-29 22:38:00,44.4,25.9,30.23,North,0,1.0,4.0,48,0.00,,,0.00,meteohub,2013-03-30 02:38:00,
2013-03-29 22:43:00,44.8,25.3,30.23,South,180,2.0,4.0,46,0.00,,,0.00,meteohub,2013-03-30 02:43:00,
2013-03-29 22:48:00,44.8,25.3,30.23,SE,135,2.0,3.0,46,0.00,,,0.00,meteohub,2013-03-30 02:48:00,
2013-03-29 22:53:00,44.2,25.7,30.23,SE,135,1.0,3.0,48,0.00,,,0.00,meteohub,2013-03-30 02:53:00,
2013-03-29 22:58:00,44.2,25.7,30.24,SW,225,2.0,3.0,48,0.00,,,0.00,meteohub,2013-03-30 02:58:00,
2013-03-29 23:03:00,44.4,25.9,30.24,East,90,2.0,4.0,48,0.00,,,0.00,meteohub,2013-03-30 03:03:00,
2013-03-29 23:08:00,44.2,25.7,30.23,South,180,3.0,4.0,48,0.00,,,0.00,meteohub,2013-03-30 03:08:00,
2013-03-29 23:13:00,43.7,26.2,30.23,SW,225,3.0,4.0,50,0.00,,,0.00,meteohub,2013-03-30 03:13:00,
2013-03-29 23:18:00,43.0,26.6,30.23,SW,225,2.0,3.0,52,0.00,,,0.00,meteohub,2013-03-30 03:18:00,
2013-03-29 23:23:00,42.3,27.3,30.23,North,0,2.0,3.0,55,0.00,,,0.00,meteohub,2013-03-30 03:23:00,
2013-03-29 23:28:00,41.4,27.3,30.24,NW,315,3.0,3.0,57,0.00,,,0.00,meteohub,2013-03-30 03:28:00,
2013-03-29 23:33:00,40.6,27.9,30.23,WSW,248,3.0,4.0,60,0.00,,,0.00,meteohub,2013-03-30 03:33:00,
2013-03-29 23:38:00,40.3,27.5,30.24,SW,225,2.0,4.0,60,0.00,,,0.00,meteohub,2013-03-30 03:38:00,
2013-03-29 23:43:00,40.3,27.5,30.24,South,180,4.0,4.0,60,0.00,,,0.00,meteohub,2013-03-30 03:43:00,
2013-03-29 23:48:00,40.6,27.5,30.24,SW,225,2.0,4.0,59,0.00,,,0.00,meteohub,2013-03-30 03:48:00,
2013-03-29 23:53:00,41.0,27.0,30.24,SW,225,2.0,4.0,57,0.00,,,0.00,meteohub,2013-03-30 03:53:00,
2013-03-29 23:58:00,40.8,27.1,30.24,South,180,1.0,4.0,58,0.00,,,0.00,meteohub,2013-03-30 03:58:00,